Location: Newark
(34.0635°N, 86.7609°W)
Time: 05:01:07
(UTC+00:00)

N. Korean satellite - Pass Details

Date: 22 December 2019
Orbit: 454 x 508 km, 97.2° (Epoch: 20 January)

Event Time Altitude Azimuth Distance (km) Brightness Sun altitude
Rises 10:55:22 0° 26° (NNE) 2,482 10.3 -22.8°
Reaches altitude 10° 10:57:43 10° 42° (NE) 1,598 9.5 -22.3°
Maximum altitude 11:00:30 23° 96° (E) 1,009 9.0 -21.8°
Drops below altitude 10° 11:03:16 10° 151° (SSE) 1,583 9.7 -21.2°
Sets 11:05:34 0° 166° (SSE) 2,451 10.5 -20.8°
